Regional Weather Roundup
Issued by NWS Sterling, VA

Home | Current Version | Previous Version | Text Only | Print | Product List | Glossary On
Versions: 1 2 3 4 5 6 7 8 9 10 11 12 13 14 15 16 17 18 19 20 21 22 23 24 25 26 27
000
ASUS41 KLWX 250010
RWRLWX

REGIONAL WEATHER ROUNDUP
NATIONAL WEATHER SERVICE BALTIMORE MD/WASHINGTON DC
800 PM EDT SUN JUL 24 2016

Note: "FAIR" indicates few or no clouds below 12,000 feet
with no significant weather and/or obstructions to visibility.
 TC=TEMPERATURE CELSIUS

 * =Non NWS site. Station does not report precipitation (e.g. rain,
    snow, etc.), thunder, or fog.

DCZ001-MDZ009-015-VAZ040>042-051-053>054-250100-
WASHINGTON METRO

CITY           SKY/WX    TMP DP  RH WIND       PRES   REMARKS
WASHINGTON NAT MOCLDY    90  74  59 S9        29.95R HX  99
DULLES         MOCLDY    89  69  51 S8        29.96R HX  93
ANDREWS AFB    CLEAR     85  71  64 SE8       29.95S HX  90
FT BELVOIR     FAIR      88  71  57 SE2       29.95R HX  94
QUANTICO       FAIR      89  71  55 S7        29.96R HX  95
COLLEGE PARK*  FAIR      88  70  55 SE5       29.94S HX  92
LEESBURG*      FAIR      90  73  58 SW6       29.96S HX  98
MANASSAS*      CLEAR     88  73  62 S3        29.95S HX  96
GAITHERSBURG*  CLOUDY    86  70  58 SE5       30.00R HX  90

$$

MDZ006>007-011-014-250100-
BALTIMORE METRO

CITY           SKY/WX    TMP DP  RH WIND       PRES   REMARKS
BWI AIRPORT    CLOUDY    87  67  51 SE5       29.95R HX  90
MD SCIENCE CTR   N/A     91  64  40 MISG      29.95R HX  92
MARTIN STATE   MOCLDY    88  73  62 SE5       29.96S HX  96
ANNAPOLIS      CLEAR     87  71  58 S7        29.94S HX  93
FORT MEADE*    CLOUDY    79  72  78 SE3       29.98R

$$

MDZ012-015-019>023-250100-
MARYLAND EASTERN SHORE

CITY           SKY/WX    TMP DP  RH WIND       PRES   REMARKS
OCEAN CITY     PTCLDY    79  76  90 VRB3      29.99R
SALISBURY      CLEAR     83  70  64 SE5       29.98R
BAY BRIDGE AP* CLEAR     88  72  58 SE3       29.95S HX  94
CAMBRIDGE*     CLEAR     86  72  62 CALM      29.97R HX  92
EASTON*        MOCLDY    90  75  62 SE5       30.00R HX 100

$$

MDZ017>025-250100-
SOUTHERN MARYLAND

CITY           SKY/WX    TMP DP  RH WIND       PRES   REMARKS
PATUXENT RIVER CLEAR     85  75  72 S6        29.96R HX  93
ST INIGOES     CLEAR     88  78  72 SE6       29.96R HX 101
LEONARDTOWN*   CLEAR     88  70  55 S3        29.98R HX  92

$$

MDZ003>005-250100-
NORTH CENTRAL MARYLAND

CITY           SKY/WX    TMP DP  RH WIND       PRES   REMARKS
FREDERICK*     CLEAR     90  72  55 CALM      29.97R HX  96
HAGERSTOWN APT CLOUDY    91  68  46 SW5       29.97R HX  95

$$

MDZ501>502-250100-
WESTERN MARYLAND

CITY           SKY/WX    TMP DP  RH WIND       PRES   REMARKS
OAKLAND*       CLOUDY    70  68  94 N5        30.16R FOG
CUMBERLAND*    MOCLDY    90  68  48 N9        30.02R HX  93

$$

VAZ025>031-250100-
SHENANDOAH VALLEY

CITY           SKY/WX    TMP DP  RH WIND       PRES   REMARKS
WINCHESTER*    FAIR      90  70  51 S7        29.97R HX  95
FRONT ROYAL*   FAIR      86  72  62 S5        29.95S HX  92
LURAY*         FAIR      88  72  58 SW6       29.99R HX  94
NEW MARKET*    MOCLDY   N/A N/A N/A SW8       29.99R
STAUNTON*      FAIR      85  74  68 N6        30.04R HX  92
WAYNESBORO*    FAIR      88  70  54 S3        30.03R HX  93

$$

WVZ021-048>050-054>055-250100-
EASTERN WEST VIRGINIA PANHANDLE

CITY           SKY/WX    TMP DP  RH WIND       PRES   REMARKS
MARTINSBURG    MOCLDY    90  68  48 NW7       29.96R HX  94
PETERSBURG*    FAIR      90  70  51 NW6       30.00R HX  95

$$

VAZ036>039-050-250100-
CENTRAL FOOTHILLS

CITY           SKY/WX    TMP DP  RH WIND       PRES   REMARKS
CHARLOTTESVILL FAIR      91  73  55 E5        29.98R HX  99
CULPEPER*      FAIR      86  77  73 CALM      29.97R HX  97
ORANGE*          N/A     86  73  66 CALM      29.99R HX  93
GORDONSVILLE*  FAIR      84  77  79 CALM      29.97R HX  94
WARRENTON*     FAIR      88  70  55 SE3       29.97R HX  92

$$

VAZ055>057-250100-
NORTH AND CENTRAL PIEDMONT

CITY           SKY/WX    TMP DP  RH WIND       PRES   REMARKS
FREDERICKSBRG*   N/A     88  77  69 CALM      29.95R HX 100
STAFFORD*      FAIR      83  76  77 CALM      30.00R HX  92

$$

NCZ024-NYZ072-PAZ021-071-VAZ022-071-250100-
OTHER REGIONAL OBSERVATIONS

CITY           SKY/WX    TMP DP  RH WIND       PRES   REMARKS
NEW YORK CITY  MOCLDY    84  67  56 S3        29.97R
PHILADELPHIA   MOCLDY    89  66  46 S9        29.96R HX  91
PITTSBURGH     CLOUDY    75  71  87 S5        30.03S
ROANOKE        FAIR      91  66  43 SW6       30.03R HX  93
RICHMOND       FAIR      88  77  69 S6        29.96R HX 100
RALEIGH        MOCLDY    90  72  55 S6        30.00R HX  97

$$

ANZ530>537-250100-
MARINE OBSERVATIONS

STATION/POSITION TIME  TEMP    WIND        PRES
                       AIR SEA DIR/SP/G
                 (UTC) (F)     (DEG/KT/KT) (MB)
THOMAS PT LIGHT  0000   87 83  170/  8/  8 1015.6S
BALT KEY BRIDGE  2348          130/  6/  7   N/A
COVE POINT       2348          190/  9/ 11   N/A
LEWISETTA        2336          170/  6/  7   N/A
SOLOMONS ISLAND  2348          150/  6/  8   N/A
PINEY POINT      2348          150/ 11/ 11   N/A

$$





USA.gov is the U.S. government's official web portal to all federal, state and local government web resources and services.